Location: Joplin, MO
(37.0842°N, 94.5133°W)
Time: 21:05:53
(UTC+02:00)

Transit 2A Rocket - Pass Details

Date: 03 April 2023
Orbit: 584 x 914 km, 66.7° (Epoch: 06 June)

Event Time Altitude Azimuth Distance (km) Brightness Sun altitude
Rises 00:59:08 0° 345° (NNW) 3,554 8.5 19.5°
Reaches altitude 10° 01:02:44 10° 6° (N) 2,597 7.7 18.8°
Maximum altitude 01:06:28 17° 44° (NE) 2,132 7.0 18.0°
Drops below altitude 10° 01:10:06 10° 82° (E) 2,520 7.1 17.3°
Sets 01:13:30 0° 103° (ESE) 3,401 7.8 16.6°
